Weather in Celje

Slovenia     46°13′58″N   15°19′01″E
temp.,
°C
wind,
m/s
gust,
m/s
humid.,
%
clouds,
%
prec.,
mm/h
press.,
hPa
HPBL,
m
15 may, sat
sat1523:00+8w1196100 0.0 101118
02:00+7wnw119697 0.0 101115
05:00+8w1196100 0.0 101014
08:00+11sw118597 0.1 1011209
11:00+16wsw136054 0.5 10101021
14:00+17ssw356094 1.4 10091672
17:00+15sw3581100 1.7 1008680
20:00+11sw2491100 2.4 1007108
16 may, sun
sun1623:00+10sw2690100 0.0 1008191
02:00+9sw229190 0.0 100846
05:00+8w229631 0.0 100824
08:00+11w128277 0.0 1009251
11:00+15se226496 0.5 10091135
14:00+15ese2380100 2.4 1008717
17:00+14ssw2688100 3.3 1007798
20:00+12s1195100 4.0 100730
17 may, mon
mon1723:00+11ssw1199100 1.9 100647
02:00+11ssw1199100 3.7 100646
05:00+11ene1199100 1.4 100544
08:00+10nnw3697100 13.4 1008448
11:00+10wsw1291100 4.9 1010333
14:00+10ssw2391100 6.9 1010371
17:00+10sw1293100 1.4 1011287
20:00+9w1198100 6.6 101238
18 may, tue
tue1823:00+8wnw1298100 1.5 101348
02:00+7w2298100 1.8 101360
05:00+6w11960 0.0 101416
08:00+9w12883 0.0 1014208
11:00+17sse1249100 0.0 10131138
14:00+18se234098 0.0 10122170
17:00+14e1371100 0.4 101191
20:00+8n1496100 4.8 1016226
19 may, wed
wed1923:00+7w1198100 3.9 101855
02:00+7w1298100 4.3 101948
05:00+6w1197100 0.0 101925
08:00+9wsw129150 0.0 1020399
11:00+14sw235818 0.1 10191307
14:00+17ssw2342100 0.3 10172344
17:00+14sse237688 2.8 1017567
20:00+9n2397100 8.7 1019101